{"data":{"norad_id":62188,"intl_designator":"2024-227A","name":"TJS-13","alt_names":[],"object_type":"PAYLOAD","status":"ACTIVE","operator":null,"country":"PRC","launch_date":"2024-12-03","launch_site_code":"XICLF","launch_vehicle":null,"mission":null,"orbit_class":"UNKNOWN","rcs_meters":null,"size_class":null,"mass_kg":null,"dimensions":null,"purposes":[],"wikipedia_slug":null,"has_3d_model":false,"image_url":null,"decayed_at":null,"tle_current":{"epoch":"2026-05-06T12:41:27.123360Z","epoch_age_seconds":1674258,"freshness":"OLD","line1":"1 62188U 24227A   26126.52878615  .00181812  00000+0  10000-3 0  9995","line2":"2 62188  63.6994  43.7759 6941075 269.5448  17.5972  2.00701816 10411","mean_motion":2.00701816,"eccentricity":0.6941075,"inclination_deg":63.6994,"raan_deg":43.7759,"arg_perigee_deg":269.5448,"mean_anomaly_deg":17.5972,"bstar":0.0001,"rev_number":1041,"period_min":717.48229722047,"perigee_km":1742.7437927791,"apogee_km":38597.287561416,"semimajor_km":26548.152677098,"source":"CELESTRAK","updated_at":"2026-05-25T13:38:02.828847Z"}}}